Date String (YYYY-MM-DD hh:mm:ss) UTC,Instrument flags,Ambient pressure (hPa),Sample flow (lpm),Bypass flow (lpm),Sample temperature (°C),Ambient temperature (°C),ASC tube jacket temperature (°C),LED temperature (°C),Box temperature (°C),Sample RH (%),Span deviation,Mass concentration (μg/m³),Mass concentration (μg/m³),Mass concentration (μg/m³)
DateTimeUTC,F1_M11,P_M11,Q1_M11,Q2_M11,T1_M11,T2_M11,T3_M11,T4_M11,T5_M11,U1_M11,ZSPAN_M11,X0_M11,X2_M11,X1_M11
2021-12-18 16:00:00,,0830.6,4.99,0.00,22.9,22.2,00.0,31.8,24.6,09.3,0000.0,0011.45,0005.54,0004.86
2021-12-18 16:01:00,,0830.6,5.00,0.00,23.0,23.2,00.0,31.8,24.9,09.1,0000.0,0011.77,0005.48,0004.85
2021-12-18 16:02:00,,0830.7,5.01,0.00,23.1,24.0,00.0,31.9,25.1,09.0,0000.0,0012.37,0005.46,0004.82
2021-12-18 16:03:00,,0830.7,5.01,0.00,23.2,23.9,00.0,31.9,25.1,08.9,0000.0,0013.24,0005.41,0004.80
2021-12-18 16:04:00,,0830.7,5.00,0.00,23.2,23.6,00.0,32.0,25.1,08.8,0000.0,0013.51,0005.38,0004.77
2021-12-18 16:05:00,,0830.8,5.00,0.00,23.3,23.4,00.0,32.0,25.1,08.7,0000.0,0012.68,0005.28,0004.71
2021-12-18 16:06:00,,0830.7,5.00,0.00,23.3,23.2,00.0,32.0,25.1,08.7,0000.0,0012.43,0005.20,0004.67
2021-12-18 16:07:00,,0830.8,5.00,0.00,23.3,23.1,00.0,32.0,25.1,08.7,0000.0,0012.35,0005.13,0004.63
2021-12-18 16:08:00,,0830.8,4.99,0.00,23.3,23.0,00.0,32.0,25.1,08.8,0000.0,0012.41,0005.11,0004.60
2021-12-18 16:09:00,,0830.8,5.01,0.00,23.3,22.9,00.0,32.1,25.0,08.8,0000.0,0012.56,0005.08,0004.56
2021-12-18 16:10:00,,0830.8,4.99,0.00,23.3,22.8,00.0,32.1,25.1,08.7,0000.0,0012.41,0005.03,0004.53
2021-12-18 16:11:00,,0830.8,4.99,0.00,23.3,22.8,00.0,32.1,25.0,08.8,0000.0,0012.27,0005.00,0004.49
2021-12-18 16:12:00,,0830.8,5.01,0.00,23.3,22.7,00.0,32.1,25.0,08.8,0000.0,0011.41,0004.98,0004.45
2021-12-18 16:13:00,,0830.8,4.99,0.00,23.3,22.7,00.0,32.1,25.0,08.7,0000.0,0010.67,0004.96,0004.43
2021-12-18 16:14:00,,0830.8,5.00,0.00,23.3,22.7,00.0,32.1,25.0,08.7,0000.0,0010.31,0004.98,0004.42
2021-12-18 16:15:00,,0830.8,5.01,0.00,23.3,22.6,00.0,32.1,25.0,08.7,0000.0,0010.18,0005.03,0004.42
2021-12-18 16:16:00,,0830.8,4.99,0.00,23.3,22.6,00.0,32.1,25.0,08.7,0000.0,0011.36,0005.09,0004.44
2021-12-18 16:17:00,,0830.8,5.00,0.00,23.3,22.6,00.0,32.1,25.0,08.7,0000.0,0011.45,0005.10,0004.45
2021-12-18 16:18:00,,0830.8,5.00,0.00,23.3,22.6,00.0,32.2,25.0,08.7,0000.0,0011.85,0005.13,0004.46
2021-12-18 16:19:00,,0830.8,5.01,0.00,23.3,22.6,00.0,32.2,25.0,08.8,0000.0,0012.41,0005.15,0004.48
2021-12-18 16:20:00,,0830.8,4.99,0.00,23.3,22.6,00.0,32.2,25.1,08.8,0000.0,0013.07,0005.17,0004.48
2021-12-18 16:21:00,,0830.8,5.00,0.00,23.3,22.6,00.0,32.2,25.0,08.8,0000.0,0013.35,0005.16,0004.46
2021-12-18 16:22:00,,0830.8,5.00,0.00,23.3,22.6,00.0,32.2,25.0,08.6,0000.0,0012.84,0005.08,0004.43
2021-12-18 16:23:00,,0830.9,5.01,0.00,23.3,22.6,00.0,32.2,25.0,08.6,0000.0,0013.08,0005.06,0004.42
2021-12-18 16:24:00,,0830.9,4.99,0.00,23.3,22.6,00.0,32.2,25.0,08.6,0000.0,0013.04,0005.00,0004.40
2021-12-18 16:25:00,,0830.9,5.01,0.00,23.3,22.5,00.0,32.2,25.0,08.6,0000.0,0012.39,0004.93,0004.36
2021-12-18 16:26:00,,0830.8,5.00,0.00,23.3,22.5,00.0,32.2,25.0,08.7,0000.0,0012.25,0004.92,0004.35
2021-12-18 16:27:00,,0830.9,4.99,0.00,23.3,22.5,00.0,32.2,25.0,08.7,0000.0,0011.34,0004.93,0004.34
2021-12-18 16:28:00,,0830.9,5.01,0.00,23.3,22.5,00.0,32.2,25.0,08.8,0000.0,0011.64,0004.93,0004.35
2021-12-18 16:29:00,,0830.8,5.00,0.00,23.3,22.5,00.0,32.2,25.0,09.0,0000.0,0011.30,0004.99,0004.40
2021-12-18 16:30:00,,0830.8,5.01,0.00,23.3,22.5,00.0,32.2,25.0,09.0,0000.0,0010.92,0005.05,0004.43
2021-12-18 16:31:00,,0830.8,5.00,0.00,23.3,22.5,00.0,32.2,25.0,09.0,0000.0,0010.67,0005.09,0004.48
2021-12-18 16:32:00,,0830.8,5.01,0.00,23.3,22.5,00.0,32.2,25.0,09.1,0000.0,0010.46,0005.14,0004.55
2021-12-18 16:33:00,,0830.9,5.00,0.00,23.3,22.4,00.0,32.2,25.0,08.9,0000.0,0010.81,0005.23,0004.60
2021-12-18 16:34:00,,0830.8,4.98,0.00,23.3,22.4,00.0,32.2,25.0,08.8,0000.0,0011.03,0005.26,0004.63
2021-12-18 16:35:00,,0830.9,5.01,0.00,23.3,22.4,00.0,32.2,25.0,08.7,0000.0,0011.57,0005.33,0004.65
2021-12-18 16:36:00,,0830.8,5.00,0.00,23.3,22.4,00.0,32.2,25.0,08.7,0000.0,0011.70,0005.40,0004.69
2021-12-18 16:37:00,,0830.8,5.01,0.00,23.3,22.5,00.0,32.2,25.0,08.7,0000.0,0011.56,0005.37,0004.70
2021-12-18 16:38:00,,0830.8,4.99,0.00,23.3,22.5,00.0,32.2,25.0,08.8,0000.0,0011.73,0005.32,0004.70
2021-12-18 16:39:00,,0830.8,5.01,0.00,23.3,22.5,00.0,32.2,25.0,08.7,0000.0,0011.21,0005.31,0004.67
2021-12-18 16:40:00,,0830.8,4.99,0.00,23.3,22.5,00.0,32.2,25.0,08.7,0000.0,0011.09,0005.23,0004.59
2021-12-18 16:41:00,,0830.8,4.99,0.00,23.3,22.5,00.0,32.2,25.1,08.7,0000.0,0010.96,0005.16,0004.52
2021-12-18 16:42:00,,0830.8,5.02,0.00,23.3,22.5,00.0,32.2,25.1,08.8,0000.0,0010.27,0005.08,0004.46
2021-12-18 16:43:00,,0830.8,4.99,0.00,23.3,22.5,00.0,32.2,25.1,08.8,0000.0,0010.77,0005.05,0004.42
2021-12-18 16:44:00,,0830.8,5.01,0.00,23.3,22.5,00.0,32.2,25.1,08.8,0000.0,0010.95,0005.01,0004.39
2021-12-18 16:45:00,,0830.7,5.00,0.00,23.3,22.5,00.0,32.3,25.1,08.8,0000.0,0010.54,0004.96,0004.37
2021-12-18 16:46:00,,0830.7,5.01,0.00,23.3,22.5,00.0,32.3,25.1,08.7,0000.0,0009.84,0004.91,0004.36
2021-12-18 16:47:00,,0830.7,4.98,0.00,23.3,22.5,00.0,32.3,25.1,08.7,0000.0,0009.89,0004.92,0004.36
2021-12-18 16:48:00,,0830.7,5.00,0.00,23.3,22.6,00.0,32.3,25.1,08.7,0000.0,0010.02,0004.95,0004.36
2021-12-18 16:49:00,,0830.8,5.00,0.00,23.3,22.6,00.0,32.3,25.1,08.7,0000.0,0009.71,0004.94,0004.36
2021-12-18 16:50:00,,0830.8,5.01,0.00,23.3,22.6,00.0,32.3,25.1,08.7,0000.0,0009.63,0004.93,0004.36
2021-12-18 16:51:00,,0830.8,4.98,0.00,23.3,22.6,00.0,32.3,25.1,08.7,0000.0,0009.68,0004.92,0004.36
2021-12-18 16:52:00,,0830.8,5.02,0.00,23.4,22.6,00.0,32.3,25.1,08.5,0000.0,0009.72,0004.86,0004.32
2021-12-18 16:53:00,,0830.7,4.99,0.00,23.4,22.6,00.0,32.3,25.1,08.5,0000.0,0009.67,0004.79,0004.27
2021-12-18 16:54:00,,0830.7,4.99,0.00,23.4,22.6,00.0,32.3,25.1,08.5,0000.0,0009.08,0004.72,0004.22
2021-12-18 16:55:00,,0830.8,5.00,0.00,23.4,22.6,00.0,32.3,25.1,08.5,0000.0,0008.60,0004.69,0004.19
2021-12-18 16:56:00,,0830.8,5.01,0.00,23.4,22.7,00.0,32.3,25.2,08.6,0000.0,0008.80,0004.70,0004.16
2021-12-18 16:57:00,,0830.7,4.99,0.00,23.4,22.6,00.0,32.3,25.2,08.6,0000.0,0008.90,0004.71,0004.14
2021-12-18 16:58:00,,0830.7,5.01,0.00,23.4,22.6,00.0,32.3,25.2,08.6,0000.0,0008.78,0004.68,0004.12
2021-12-18 16:59:00,,0830.7,4.99,0.00,23.4,22.6,00.0,32.3,25.2,08.5,0000.0,0008.85,0004.59,0004.08
